Regional Weather Roundup
Issued by NWS

Home | Current Version | Previous Version | Graphics & Text | Print | Product List | Glossary On
Versions: 1 2 3 4 5 6 7 8 9 10 11 12 13 14 15 16 17 18 19 20 21 22 23 24 25 26 27 28 29 30 31 32 33 34 35 36 37 38 39 40 41 42 43 44 45 46 47 48 49 50
000
ASUS43 KMKX 040200
RWRWI

WISCONSIN REGIONAL WEATHER ROUNDUP
NATIONAL WEATHER SERVICE MILWAUKEE/SULLIVAN WI
900 PM CDT SUN MAY 03 2015

NOTE: "FAIR" INDICATES FEW OR NO CLOUDS BELOW 12,000 FEET WITH NO
SIGNIFICANT WEATHER AND/OR OBSTRUCTIONS TO VISIBILITY.

WIZ001-002-006>008-014>016-023>028-040300-
NORTHWEST WISCONSIN

CITY           SKY/WX    TMP DP  RH WIND       PRES   REMARKS
SUPERIOR ARPT  PTCLDY    53  47  80 S3        29.85R
ASHLAND        CLOUDY    56  50  80 S6        29.85F
HAYWARD        CLOUDY    58  48  69 CALM      29.86S
SIREN          MOCLDY    60  43  55 CALM      29.86S
CUMBERLAND     CLOUDY    59  41  51 N7        29.87R
RICE LAKE      CLOUDY    61  46  57 E7        29.88R
CHETEK         CLOUDY    60  54  81 N6        29.86F
LADYSMITH      TSTM      59  52  77 NE9       29.88F
EAU CLAIRE     LGT RAIN  59  54  83 E12       29.87R
MENOMONIE      LGT RAIN  57  57  99 CALM      29.88R
NEW RICHMOND   CLOUDY    60  49  66 N6        29.88R
OSCEOLA        CLOUDY    63  44  50 NE5       29.90R
$$

WIZ003>005-009-010-017-018-040300-
NORTH CENTRAL WISCONSIN

CITY           SKY/WX    TMP DP  RH WIND       PRES   REMARKS
MANITOWISH WTR LGT RAIN  60  42  50 NW9       29.90R
ARBOR VITAE    CLOUDY    62  44  51 NW12G20   29.91R
WOODRUFF       CLOUDY    62  44  51 NW12G20   29.91R
RHINELANDER    CLOUDY    60  54  80 NW7       29.91R
EAGLE RIVER    CLOUDY    59  56  91 W3        29.88R
LAND O LAKES   CLOUDY    61  47  61 N9G20     29.87R
PHILLIPS       RAIN      60  51  71 N6        29.90R
TOMAHAWK       LGT RAIN  58  56  91 CALM      29.90R
MEDFORD        CLOUDY    60  54  81 N16       29.86R
MERRILL        TSTM      59  58  94 N13G20    29.88R
$$

WIZ029-030-035-036-043>047-040300-
CENTRAL WISCONSIN

CITY           SKY/WX    TMP DP  RH WIND       PRES   REMARKS
WAUSAU         CLOUDY    67  52  58 N14G26    29.84R THUNDER
MOSINEE        PTCLDY    70  54  56 SW6       29.83
MARSHFIELD     HVY RAIN  62  56  80 W23G35    29.88R
STEVENS POINT  CLOUDY    69  52  54 S8        29.82R
WAUPACA        MOCLDY    69  54  57 S8        29.82R
WAUTOMA        NOT AVBL
WISC RAPIDS    CLOUDY    71  53  52 S8        29.84R
CAMP DOUGLAS   NOT AVBL
$$

WIZ011>013-019>022-031-037>040-048>050-040300-
NORTHEAST WISCONSIN

CITY           SKY/WX    TMP DP  RH WIND       PRES   REMARKS
ANTIGO         HVY RAIN  60  54  78 NW24G33   29.86R
SHAWANO        MOCLDY    73  53  49 S7G16     29.81R
OCONTO         CLEAR     71  55  56 SW10G18   29.80R
STURGEON BAY   CLEAR     64  50  59 S9        29.84R
GREEN BAY      CLEAR     69  53  56 S12       29.84R
MANITOWOC      NOT AVBL
APPLETON       PTCLDY    66  52  59 S13       29.86R
CLINTONVILLE   MOCLDY    70  52  52 S12       29.81R
OSHKOSH        CLEAR     65  53  65 S8        29.84R
$$

WIZ032>034-041-042-053>061-040300-
SOUTHWEST WISCONSIN

CITY           SKY/WX    TMP DP  RH WIND       PRES   REMARKS
LA CROSSE      TSTM      67  56  67 NW18      29.88R
SPARTA         CLOUDY    73  55  54 SW3       29.83R
VIROQUA        CLOUDY    69  56  64 S5        29.84R
BOSCOBEL       MOCLDY    71  58  63 VRB5      29.84R
PRAIRIE DU CHI PTCLDY    71  57  61 E8        29.81R
PLATTEVILLE    CLEAR     65  60  82 E5        29.86R
$$

WIZ056-057-062-063-064-067-068-040300-
SOUTH CENTRAL WISCONSIN

CITY           SKY/WX    TMP DP  RH WIND       PRES   REMARKS
REEDSBURG      MOCLDY    67  56  70 CALM      29.84R
BARABOO/DELLS  NOT AVBL
LONE ROCK      NOT AVBL
MINERAL POINT  PTCLDY    64  59  82 SE12      29.87R
MADISON        MOCLDY    66  55  67 S10       29.86R
MIDDLETON      FAIR      67  54  61 S5        29.86R
WATERTOWN      CLEAR     64  55  71 S9        29.85S
MONROE         CLEAR     61  55  82 SE8       29.86R
JANESVILLE     CLEAR     64  54  68 S9        29.85F
$$

WIZ051-052-058>065-066-070>072-040300-
SOUTHEAST WISCONSIN

CITY           SKY/WX    TMP DP  RH WIND       PRES   REMARKS
MILWAUKEE      PTCLDY    66  53  63 S12G22    29.87F
WAUKESHA       CLEAR     63  54  72 SW12      29.89S
MILWAUKEE/TIMM CLEAR     66  52  59 S13G20    29.87F
RACINE         PTCLDY    65  54  67 S12       29.90F
BURLINGTON     CLEAR     60  55  86 S5        29.88F
KENOSHA        PTCLDY    64  57  78 S13       29.89F
FOND DU LAC    CLEAR     66  53  63 S9        29.85R
SHEBOYGAN      CLEAR     64  52  64 S9        29.86R
WEST BEND      CLEAR     64  50  59 S7        29.87R
JUNEAU         CLEAR     64  54  69 S10       29.87R
$$

LSZ147-162-040300-
LAKE SUPERIOR

STATION/POSITION TIME  TEMP    WIND        PRES    WAVE
                       AIR SEA DIR/SP/G            HT/PER
                 (UTC) (F)     (DEG/KT/KT) (MB)    (FT/S)
W MID LAKE BUOY  0050   46 36  280/  8/  8 1009.8R   1/ 3
DEVILS ISLAND    0100   61     200/  8/  8 1009.5F
PORT WING        0140   55     180/  2/  2 1011.2R
SAXON HARBOR     0100   58      CALM  / 13 1011.5R
$$

LMZ867-665-643>646-040300-
LAKE MICHIGAN

STATION/POSITION TIME  TEMP    WIND        PRES    WAVE
                       AIR SEA DIR/SP/G            HT/PER
                 (UTC) (F)     (DEG/KT/KT) (MB)    (FT/S)
CHAMBERS ISLAND  0100   67     170/  6/ 12 1008.1S
NORTHPORT PIER   0100   51     150/  7/ 12 1008.5F
KEWAUNEE LAKESHO 0100   50     190/ 12/ 14 1008.8F
SHEBOYGAN LAKESH 0100   65     180/ 19/ 20 1010.4F
PORT WASHINGTON  0140   51     180/  8/ 11 1011.9F
ATWATER BUOY     0100   53     180/ 10/ 12 1012.9F
MILWAUKEE LAKESH 0100   65     190/ 14/ 17   N/A
KENOSHA   LAKESH 0100   65     190/ 13/ 21 1012.5F
$$

TC  - TEMPERATURE IN CELSIUS
VSB - VISIBILITY IN STATUTE MILES
WCI - WIND CHILL INDEX
HX  - HEAT INDEX




USA.gov is the U.S. government's official web portal to all federal, state and local government web resources and services.